{"data":{"norad_id":43083,"epoch":"2026-05-24T21:03:03.551616Z","epoch_age_seconds":92488,"freshness":"FRESH","line1":"1 43083U 17085C   26144.87712444  .00002301  00000+0  17183-3 0  9991","line2":"2 43083  34.9956 292.6264 0005398 291.4404  68.5728 15.02522307459243","mean_motion":15.02522307,"eccentricity":0.0005398,"inclination_deg":34.9956,"raan_deg":292.6264,"arg_perigee_deg":291.4404,"mean_anomaly_deg":68.5728,"bstar":0.00017183,"rev_number":45924,"period_min":95.838843343043,"perigee_km":555.37694857468,"apogee_km":562.86641304648,"semimajor_km":6937.2586808106,"source":"CELESTRAK","updated_at":"2026-05-25T13:37:55.763931Z"}}